Location: El Bakhil
(32.7726°N, 5.5387°W)
Time: 19:04:15
(UTC+00:00)

X-37B - Visible Passes

Search period start: 29 November 2021 00:00
Search period end: 09 December 2021 00:00
Orbit: 330 x 341 km, 45.0° (Epoch: 20 November)

Date Brightness Start Highest point End Pass type
(mag) Time Alt. Az. Time Alt. Az. Time Alt. Az.
02 Dec 2.6 18:40:35 10° S 18:41:40 15° SSE 18:41:40 15° SSE visible
03 Dec 2.1 19:00:00 10° SW 19:01:36 29° SW 19:01:36 29° SW visible
04 Dec 2.4 17:46:02 10° S 17:47:58 17° SE 17:49:55 10° E visible
04 Dec 3.4 19:20:35 10° W 19:21:27 17° W 19:21:27 17° W visible
05 Dec 0.5 18:05:25 10° SW 18:08:14 60° SE 18:10:00 20° ENE visible
06 Dec 1.4 18:26:00 10° W 18:28:42 37° NNW 18:29:43 27° NNE visible
07 Dec 2.6 18:47:23 10° WNW 18:49:21 17° NNW 18:49:22 17° NNW visible
